Location: Eastlake (historical)
(39.0077°N, 122.6678°W)
Time: 09:49:35
(UTC+00:00)

NOSS 3-4 (C) - Pass Details

Date: 25 November 2020
Orbit: 878 x 1334 km, 63.4° (Epoch: 22 January)

Event Time Altitude Azimuth Distance (km) Brightness Sun altitude
Exits shadow 13:59:11 - 240° (WSW) 3,039 5.7 -12.7°
Reaches altitude 10° 14:00:37 10° 245° (WSW) 2,536 5.3 -12.5°
Maximum altitude 14:06:02 38° 313° (NW) 1,351 3.8 -11.5°
Drops below altitude 10° 14:11:48 10° 21° (NNE) 2,699 5.9 -10.4°
Sets 14:14:40 0° 29° (NNE) 3,712 6.7 -9.9°
